Location: Dzierzno
(50.6159°N, 19.2852°E)
Time: 06:28:08
(UTC+00:00)

Resurs 1-3 - Pass Details

Date: 18 November 2025
Orbit: 613 x 615 km, 97.7° (Epoch: 06 December)

Event Time Altitude Azimuth Distance (km) Brightness Sun altitude
Rises 16:55:59 0° 161° (SSE) 2,873 6.9 -19.2°
Reaches altitude 10° 16:58:09 10° 160° (SSE) 1,972 6.0 -19.6°
Maximum altitude 17:02:26 78° 74° (ENE) 635 3.4 -20.2°
Drops below altitude 10° 17:06:46 10° 349° (N) 1,987 6.2 -20.9°
Sets 17:08:57 0° 348° (NNW) 2,896 7.1 -21.3°
